DW8039 Weather Reports


Display with metric or nautical units.
time (UTC)temp
F
wind
direction
speed
MPH
gust
MPH
rain 1hr
in
rain 24hr
in
rain mn
in
humidity
%
barometer
mb
20260502123403 56 96 2.0 3.0 0.04 0.04 0.04 81 1014.9
20260502122904 57 160 2.0 8.0 0.02 0.02 0.02 79 1015.0
20260502122403 57 96 2.0 12.0 0.00 0.00 0.00 77 1015.0
20260502120904 58 118 3.0 9.0 0.00 0.00 0.00 78 1015.2
20260502120404 58 129 3.0 10.0 0.00 0.00 0.00 77 1015.3
20260502115404 59 109 3.0 9.0 0.00 0.00 0.00 74 1015.2
20260502113904 59 54 3.0 5.0 0.00 0.00 0.00 76 1015.4
20260502113404 59 59 2.0 5.0 0.00 0.00 0.00 76 1015.5
20260502112904 59 100 2.0 6.0 0.00 0.00 0.00 76 1015.6
20260502112403 59 68 3.0 8.0 0.00 0.00 0.00 76 1015.7
20260502110404 58 101 2.0 7.0 0.00 0.00 0.00 78 1016.2
20260502105404 58 87 3.0 8.0 0.00 0.00 0.00 78 1016.3
20260502103904 58 131 2.0 7.0 0.00 0.00 0.00 79 1016.6
20260502103404 58 144 0.0 6.0 0.00 0.00 0.00 79 1016.7
20260502102904 58 170 3.0 8.0 0.00 0.00 0.00 79 1016.7
20260502102404 58 148 1.0 9.0 0.00 0.00 0.00 80 1016.7
20260502100903 57 136 1.0 6.0 0.00 0.00 0.00 81 1016.9
20260502100404 57 122 2.0 7.0 0.00 0.00 0.00 81 1017.0
20260502090903 56 103 2.0 6.0 0.00 0.00 0.00 82 1017.1
20260502090403 56 125 1.0 3.0 0.00 0.00 0.00 82 1017.2
20260502070903 53 160 1.0 6.0 0.00 0.00 0.00 92 1018.1
20260502070404 52 123 1.0 7.0 0.00 0.00 0.00 92 1018.2
20260502065904 52 115 1.0 3.0 0.00 0.00 0.00 92 1018.1
20260502065404 52 115 1.0 5.0 0.00 0.00 0.00 92 1018.2
20260502063903 51 120 2.0 3.0 0.00 0.00 0.00 92 1018.5
20260502063404 51 119 1.0 3.0 0.00 0.00 0.00 92 1018.4
20260502062903 51 121 2.0 5.0 0.00 0.00 0.00 92 1018.3
20260502062404 51 103 1.0 7.0 0.00 0.00 0.00 92 1018.3
20260502060904 51 125 2.0 5.0 0.00 0.00 0.00 92 1018.4
20260502060404 50 121 1.0 3.0 0.00 0.00 0.00 92 1018.3
20260502055405 50 121 3.0 6.0 0.00 0.00 0.00 92 1018.2
20260502053904 50 138 1.0 2.0 0.00 0.00 0.00 92 1018.1
20260502053405 50 138 2.0 6.0 0.00 0.00 0.00 92 1018.4
20260502052904 50 115 2.0 3.0 0.00 0.00 0.00 92 1018.4
20260502052404 50 119 2.0 6.0 0.00 0.00 0.00 92 1018.4
20260502050903 49 110 1.0 3.0 0.00 0.00 0.00 92 1018.6
20260502050404 49 115 2.0 6.0 0.00 0.00 0.00 92 1018.7
20260502045903 49 114 1.0 3.0 0.00 0.00 0.00 92 1018.7
20260502045404 49 113 1.0 7.0 0.00 0.00 0.00 92 1018.8
20260502043904 49 119 2.0 6.0 0.00 0.00 0.00 92 1018.9
20260502043403 49 123 0.0 3.0 0.00 0.00 0.00 92 1018.9
20260502042904 49 89 1.0 3.0 0.00 0.00 0.00 92 1019.0
20260502040904 49 138 1.0 2.0 0.00 0.00 0.00 92 1019.0
20260502035904 49 138 0.0 3.0 0.00 0.00 0.00 92 1019.1
20260502035404 49 139 1.0 3.0 0.00 0.00 0.00 92 1019.3
20260502033905 49 140 0.0 3.0 0.00 0.00 0.00 92 1019.3
20260502033404 49 140 0.0 2.0 0.00 0.00 0.00 92 1019.3
20260502032904 49 140 1.0 3.0 0.00 0.00 0.00 92 1019.3
20260502030404 49 136 0.0 0.0 0.00 0.00 0.00 92 1019.3
20260502025904 50 136 0.0 0.0 0.00 0.00 0.00 92 1019.3
20260502025404 50 136 0.0 1.0 0.00 0.00 0.00 92 1019.3
20260502023903 50 136 1.0 3.0 0.00 0.00 0.00 92 1019.2
20260502023404 50 136 0.0 3.0 0.00 0.00 0.00 92 1019.3
20260502022404 50 137 2.0 3.0 0.00 0.00 0.00 92 1019.3
20260502020904 50 140 2.0 3.0 0.00 0.00 0.00 92 1019.5
20260502020403 50 145 2.0 3.0 0.00 0.00 0.00 92 1019.7
20260502015904 50 147 2.0 3.0 0.00 0.00 0.00 92 1019.7
20260502015403 50 148 1.0 3.0 0.00 0.00 0.00 92 1019.8
20260502013903 50 169 1.0 3.0 0.00 0.00 0.00 92 1020.1
20260502013404 50 173 2.0 3.0 0.00 0.00 0.00 92 1020.1
20260502012903 50 175 1.0 3.0 0.00 0.00 0.00 92 1020.2
20260502012404 50 178 2.0 3.0 0.00 0.00 0.00 92 1020.2
20260502010904 51 250 0.0 0.0 0.00 0.00 0.00 92 1020.4
20260502010404 51 252 0.0 0.0 0.00 0.00 0.00 91 1020.5
20260502005904 51 253 0.0 0.0 0.00 0.00 0.00 91 1020.5
20260502005403 51 253 0.0 0.0 0.00 0.00 0.00 91 1020.6
20260502003903 51 253 0.0 0.0 0.00 0.00 0.00 91 1020.6
20260502003404 51 254 0.0 0.0 0.00 0.00 0.00 91 1020.7
20260502002903 51 254 0.0 0.0 0.00 0.00 0.00 91 1020.7
20260502000904 51 255 0.0 0.0 0.00 0.00 0.00 91 1020.7
20260502000403 51 255 0.0 0.0 0.00 0.00 0.00 90 1020.8
20260501235904 51 255 0.0 0.0 0.00 0.00 0.00 90 1020.9
20260501235404 51 255 0.0 0.0 0.00 0.00 0.00 90 1020.9
20260501233904 51 255 0.0 0.0 0.00 0.00 0.00 90 1021.1
20260501233404 52 255 0.0 0.0 0.00 0.00 0.00 90 1021.0
20260501232904 52 255 0.0 0.0 0.00 0.00 0.00 90 1021.1
20260501225903 52 258 0.0 0.0 0.00 0.00 0.00 90 1021.2
20260501223904 52 258 0.0 1.0 0.00 0.00 0.00 89 1021.3
20260501223403 52 258 0.0 0.0 0.00 0.00 0.00 89 1021.3
20260501222905 53 258 0.0 1.0 0.00 0.00 0.00 89 1021.3
20260501222404 53 258 0.0 3.0 0.00 0.00 0.00 89 1021.4
20260501220904 53 258 1.0 3.0 0.00 0.00 0.00 89 1021.5
20260501220404 53 259 1.0 3.0 0.00 0.00 0.00 89 1021.5
20260501215904 53 259 2.0 3.0 0.00 0.00 0.00 89 1021.5
20260501213903 54 257 0.0 3.0 0.00 0.00 0.00 89 1021.5
20260501213403 54 257 1.0 2.0 0.00 0.00 0.00 88 1021.6
20260501212903 54 257 1.0 2.0 0.00 0.00 0.00 89 1021.6
20260501212404 54 257 2.0 12.0 0.00 0.00 0.00 89 1021.6
20260501210903 54 229 3.0 7.0 0.00 0.00 0.00 88 1021.7
20260501210404 54 244 6.0 12.0 0.00 0.00 0.00 88 1021.7
20260501205904 54 247 5.0 9.0 0.00 0.00 0.00 88 1021.7
20260501205404 54 216 5.0 10.0 0.00 0.00 0.00 88 1021.6
20260501203904 54 217 5.0 9.0 0.00 0.00 0.00 87 1021.5
20260501202904 54 222 5.0 9.0 0.00 0.00 0.00 86 1021.6
20260501202404 54 212 4.0 6.0 0.00 0.00 0.00 86 1021.5
20260501200904 54 246 3.0 7.0 0.00 0.00 0.00 85 1021.4
20260501200404 54 237 4.0 10.0 0.00 0.00 0.00 85 1021.3
20260501195904 55 233 5.0 9.0 0.00 0.00 0.00 85 1021.2
20260501195404 55 229 3.0 8.0 0.00 0.00 0.00 85 1021.2
20260501193903 55 231 6.0 9.0 0.00 0.00 0.00 84 1021.0
20260501193403 55 240 5.0 9.0 0.00 0.00 0.00 84 1021.0
20260501192903 55 246 4.0 8.0 0.00 0.00 0.00 83 1021.0
20260501192403 55 233 6.0 10.0 0.00 0.00 0.00 83 1021.0
20260501185903 56 259 3.0 7.0 0.00 0.00 0.00 82 1020.9
20260501185404 56 250 3.0 9.0 0.00 0.00 0.00 81 1020.9
20260501183904 57 243 6.0 10.0 0.00 0.00 0.00 80 1020.8
20260501183404 57 229 5.0 10.0 0.00 0.00 0.00 80 1020.8
20260501182904 57 240 7.0 12.0 0.00 0.00 0.00 79 1020.8
20260501182404 57 234 5.0 13.0 0.00 0.00 0.00 79 1020.9
20260501180903 58 235 6.0 12.0 0.00 0.00 0.00 78 1020.9
20260501180404 58 231 4.0 8.0 0.00 0.00 0.00 77 1020.9
20260501175903 58 235 7.0 12.0 0.00 0.00 0.00 77 1020.9
20260501173903 59 241 6.0 12.0 0.00 0.00 0.00 74 1020.8
20260501173404 59 241 6.0 10.0 0.00 0.00 0.00 74 1020.9
20260501172404 60 248 5.0 12.0 0.00 0.00 0.00 73 1020.8
20260501170904 60 245 6.0 10.0 0.00 0.00 0.00 73 1020.8
20260501170404 60 246 6.0 12.0 0.00 0.00 0.00 73 1020.7
20260501165903 60 237 6.0 10.0 0.00 0.00 0.00 74 1020.8
20260501165404 60 262 8.0 12.0 0.00 0.00 0.00 75 1020.8
20260501163904 60 236 6.0 12.0 0.00 0.00 0.00 73 1020.8
20260501163403 60 218 6.0 13.0 0.00 0.00 0.00 73 1020.9
20260501162904 60 222 6.0 13.0 0.00 0.00 0.00 74 1020.9
20260501162403 60 224 7.0 13.0 0.00 0.00 0.00 75 1020.9
20260501160903 60 239 7.0 12.0 0.00 0.00 0.00 74 1021.0
20260501155904 60 240 4.0 9.0 0.00 0.00 0.00 75 1021.1
20260501153404 60 244 6.0 9.0 0.00 0.00 0.00 77 1021.2
20260501152904 59 208 5.0 10.0 0.00 0.00 0.00 77 1021.2
20260501152403 59 223 6.0 13.0 0.00 0.00 0.00 77 1021.3
20260501150903 60 212 9.0 13.0 0.00 0.00 0.00 75 1021.3
20260501150404 60 208 7.0 12.0 0.00 0.00 0.00 74 1021.4
20260501145903 61 223 5.0 12.0 0.00 0.00 0.00 72 1021.3